Flag for U.S.A. Weather past 2 weeks in Wilmington, Delaware, U.S.A.

Now
21 °F

Overcast.


Feels Like: 21 °F
Forecast: 15 / 33 °F
Wind: No wind

Location: New Castle County Airport

Current Time: Mar 1, 2015 at 4:35:41 AM

Latest Report: Mar 1, 2015 at 3:51 AM


Visibility: 10 mi

Pressure: 30.71 "Hg

Humidity: 62%

Dew point: 10 °F

Location of WilmingtonLocation

Historic Weather in Wilmington — Graph

°F

Wilmington temperature yesterday

Maximum temperature yesterday: 31 °F (at 3:51 PM)
Minimum temperature yesterday: 14 °F (at 5:51 AM)
Average temperature yesterday: 22 °F

Past Weeks' High & Low Weather Summary

 TemperatureHumidityPressure
High43 °F (Feb 22, 3:51 PM)100% (Feb 22, 3:51 AM)30.86 "Hg (Feb 22, 3:51 AM)
Low2 °F (Feb 16, 4:51 AM)26% (Feb 28, 3:51 PM)29.50 "Hg (Feb 14, 7:58 PM)
Average21 °F58%30.16 "Hg
* Reported Feb 14 2:51 AM — Mar 1 2:51 AM, Wilmington, Weather by CustomWeather, © 2015

Note: Actual official high and low records may vary slightly from our data, if they occured in-between our weather recording intervals... More about our weather records

Advertising

Wilmington weather history for previous 24 hours

 ConditionsComfort  
Time TempWeatherWind HumidityBarometerVisibility
2:51 AM
Sun, Mar 1
20 °FPassing clouds.No wind62%30.71 "Hg10 mi
1:51 AM17 °FClear.3 mph70%30.74 "Hg10 mi
12:51 AM20 °FClear.No wind55%30.73 "Hg10 mi
11:51 PM
Sat, Feb 28
21 °FClear.No wind50%30.74 "Hg10 mi
10:51 PM22 °FClear.3 mph46%30.77 "Hg10 mi
9:51 PM23 °FClear.3 mph46%30.80 "Hg10 mi
8:51 PM23 °FClear.5 mph46%30.79 "Hg10 mi
7:51 PM24 °FClear.3 mph42%30.77 "Hg10 mi
6:51 PM24 °FClear.5 mph46%30.77 "Hg10 mi
5:51 PM27 °FSunny.7 mph35%30.77 "Hg10 mi
4:51 PM28 °FSunny.6 mph32%30.76 "Hg10 mi
3:51 PM31 °FSunny.3 mph26%30.77 "Hg10 mi
2:51 PM29 °FSunny.7 mph27%30.78 "Hg10 mi
1:51 PM29 °FSunny.6 mph31%30.79 "Hg10 mi
12:51 PM27 °FSunny.7 mph31%30.82 "Hg10 mi
11:51 AM25 °FSunny.5 mph29%30.85 "Hg10 mi
10:51 AM22 °FSunny.5 mph31%30.86 "Hg10 mi
9:51 AM21 °FSunny.8 mph36%30.85 "Hg10 mi
8:51 AM19 °FSunny.10 mph43%30.85 "Hg10 mi
7:51 AM18 °FSunny.7 mph45%30.83 "Hg10 mi
6:51 AM14 °FSunny.5 mph58%30.81 "Hg10 mi
5:51 AM14 °FClear.6 mph58%30.78 "Hg10 mi
4:51 AM17 °FClear.7 mph51%30.75 "Hg10 mi
Weather by CustomWeather, © 2015

See weather overviewHow to use our weather pages